Location: Kirchberg
(47.4114°N, 9.0398°E)
Time: 06:05:32
(UTC+00:00)

Cosmos 44 Rocket - Pass Details

Date: 03 March 2021
Orbit: 636 x 754 km, 65.1° (Epoch: 11 April)

Event Time Altitude Azimuth Distance (km) Brightness Sun altitude
Rises 18:20:14 0° 320° (NW) 3,211 7.4 -12.3°
Reaches altitude 10° 18:22:40 10° 317° (NW) 2,285 6.7 -12.7°
Maximum altitude 18:27:48 58° 239° (WSW) 877 4.1 -13.6°
Drops below altitude 10° 18:32:53 10° 161° (SSE) 2,253 5.7 -14.5°
Sets 18:35:16 0° 158° (SSE) 3,161 6.4 -14.9°
